DECAYED

CZ-6A DEB, 54605 (Decayed)

Orbit data source: Space-Track

CZ-6A DEB, 54605 was space debris in SSO originally from a launch on Fri, 11 Nov 2022 UTC launched from the Taiyaun Space Center, China (TSC). Debris objects in space refer to the collection of defunct objects orbiting the Earth. Examples of debris include non-operational satellites, rocket bodies, and fragments generated from explosions, collisions, or faulty payload assembly.

Not visible in the next 10 days
Identifier
54605, 2022-151NF
Orbit
Decayed
Country
Flag of CNCN / PRC
Related business
Manufacturer
SAST
Mission
Decayed spacecraft
Bus & Motor
Unknown
Mass
Unknown
Launch date (UTC)
2022-11-11 (4 years ago)
Launch vehicle
Unknown
Launch site
Taiyaun Space Center, China (TSC)
Object type
Payload
Rocket body
Debris
Shape & HBR
Unknown shape, 0.1 m
Radar Cross Section
Medium (>0.1 m² and <1 m²)

Expand to show TLE details & history
Last TLE update: 8 months ago

TLE from 8 months ago
0 CZ-6A DEB
1 54605U 22151NF  25331.20746058  .05475061  62706-1  15811-1 0  9994
2 54605  98.5428  59.3706 0017203 343.7047  16.3671 15.98822079 90058
Epoch: 2025-11-27T04:58Z
TLE epoch observation values (Epoch: 2025-11-27T04:58:44.594Z)
Latitude
-0.00005°
Longitude
-81.68288°
Altitude
269.859 km
Speed
7.752 km/s
True Right ascension
03h 57m 28s
True Declination
0° 00' 00"
Sunlit
Object was in full shadow at epoch
Visualization orbit readout
Latitude
Unknown
Longitude
Unknown
Altitude
Unknown
Speed
Unknown
Apparent Right ascension
Unknown
Apparent Declination
Unknown
Sunlit
N/A
Visualization observer readout
Local Sidereal Time
15:15:03
Azimuth
Unknown
Elevation
Unknown
Doppler factor
Unknown
Orbital elements
Apogee altitude
286.046 km
Perigee altitude
263.157 km
Semi-major axis
6,652.738 km
Eccentricity
0.00172
Inclination
98.5428°
RAAN
59.3706°
Arg. of periapsis
343.7047°
True anomaly
16.42276°
Mean anomaly
16.3671°
Eccentric anomaly
16.39492°
Mean motion
3.99984 °/min
Orbital period
90 mins
BSTAR
0.015811
Loading maneuver chart data...
Computing Atmospheric mass density...
Loading historical data...
Loading historical data...
Loading historical data...
Loading historical data...
Loading historical data...
Loading historical data...
Loading historical data...

Documentation

Showing up to 5 results
|